カタログに戻る

METEOR 2-8 DEB

運用中PO
NORAD 36324·DEBRIS·🇷🇺 Russia

打ち上げ Mar 25, 1982 から Plesetsk Cosmodrome

Loading…

次のパス (今後24時間)

TLE

経年Source: Space-Track

元期: Sep 10, 2026, 12:43 UTC

1 36324U 82025J   26253.53015602  .00001764  00000-0  88062-3 0  9990
2 36324  82.5303 184.7642 0011496 300.7666  59.2380 14.16346730119410

AllMySatでMETEOR 2-8 DEBをリアルタイム追跡

Download on the App Store